TimeEST,TemperatureF,Dew PointF,Humidity,Sea Level PressureIn,VisibilityMPH,Wind Direction,Wind SpeedMPH,Gust SpeedMPH,PrecipitationIn,Events,Conditions,WindDirDegrees,DateUTC
1:52 AM,18.0,16.0,92,30.00,10.0,WNW,6.9,-,0.01,,Overcast,290,2013-12-17 06:52:00
2:52 AM,17.1,15.1,92,30.00,10.0,West,5.8,-,N/A,,Overcast,260,2013-12-17 07:52:00
3:52 AM,17.1,15.1,92,30.01,10.0,West,12.7,-,N/A,,Overcast,260,2013-12-17 08:52:00
4:41 AM,17.6,14.0,86,29.97,10.0,West,10.4,-,N/A,,Scattered Clouds,260,2013-12-17 09:41:00
4:52 AM,17.1,15.1,92,30.01,10.0,West,10.4,-,N/A,,Mostly Cloudy,260,2013-12-17 09:52:00
5:52 AM,18.0,16.0,92,30.01,10.0,WSW,9.2,-,N/A,,Mostly Cloudy,240,2013-12-17 10:52:00
6:05 AM,17.6,15.8,93,29.98,10.0,WSW,9.2,-,N/A,,Scattered Clouds,240,2013-12-17 11:05:00
6:16 AM,17.6,15.8,93,29.98,10.0,West,9.2,-,N/A,,Mostly Cloudy,260,2013-12-17 11:16:00
6:48 AM,19.4,17.6,93,30.00,9.0,West,10.4,-,N/A,,Overcast,260,2013-12-17 11:48:00
6:52 AM,19.9,17.1,89,30.04,9.0,West,10.4,-,N/A,,Overcast,260,2013-12-17 11:52:00
7:06 AM,19.4,17.6,93,30.01,9.0,West,11.5,-,N/A,,Overcast,260,2013-12-17 12:06:00
7:20 AM,19.4,17.6,93,30.01,8.0,West,10.4,-,N/A,,Overcast,260,2013-12-17 12:20:00
7:52 AM,19.9,18.0,92,30.05,8.0,WSW,6.9,-,N/A,,Overcast,250,2013-12-17 12:52:00
8:52 AM,21.9,19.0,89,30.04,9.0,WSW,6.9,-,N/A,,Overcast,240,2013-12-17 13:52:00
9:52 AM,21.9,18.0,85,30.04,10.0,WSW,11.5,-,N/A,,Overcast,240,2013-12-17 14:52:00
10:52 AM,21.9,18.0,85,30.04,10.0,SSW,9.2,-,N/A,,Overcast,210,2013-12-17 15:52:00
11:52 AM,21.9,18.0,85,30.00,10.0,SSW,10.4,-,N/A,,Mostly Cloudy,200,2013-12-17 16:52:00
12:52 PM,21.9,19.0,89,29.97,9.0,SSW,15.0,20.7,N/A,,Overcast,210,2013-12-17 17:52:00
1:48 PM,23.0,19.4,86,29.92,10.0,WSW,17.3,21.9,N/A,,Overcast,240,2013-12-17 18:48:00
1:52 PM,23.0,19.0,85,29.96,10.0,SW,15.0,21.9,N/A,,Overcast,220,2013-12-17 18:52:00
2:21 PM,24.8,19.4,80,29.92,9.0,SW,15.0,-,N/A,,Overcast,230,2013-12-17 19:21:00
2:48 PM,23.0,19.4,86,29.92,2.0,WSW,12.7,-,0.00,Snow,Light Snow,240,2013-12-17 19:48:00
2:52 PM,23.0,19.0,85,29.96,1.2,SW,11.5,20.7,0.00,Snow,Light Snow,230,2013-12-17 19:52:00
2:56 PM,23.0,19.4,86,29.92,0.8,SW,12.7,-,0.00,Snow,Light Snow,230,2013-12-17 19:56:00
3:13 PM,21.2,19.4,93,29.93,0.8,SW,9.2,-,0.01,Snow,Light Snow,220,2013-12-17 20:13:00
3:29 PM,21.2,19.4,93,29.92,1.0,SW,8.1,17.3,0.02,Snow,Light Snow,230,2013-12-17 20:29:00
3:34 PM,21.2,19.4,93,29.92,1.8,SW,11.5,17.3,0.03,Snow,Light Snow,230,2013-12-17 20:34:00
3:41 PM,23.0,19.4,86,29.92,2.5,SW,15.0,18.4,0.03,Snow,Light Snow,230,2013-12-17 20:41:00
3:52 PM,23.0,19.0,85,29.96,2.5,SW,11.5,18.4,0.03,Snow,Light Snow,230,2013-12-17 20:52:00
4:02 PM,23.0,19.4,86,29.93,4.0,WSW,12.7,-,0.00,Snow,Light Snow,240,2013-12-17 21:02:00
4:21 PM,21.2,19.4,93,29.94,9.0,WSW,13.8,-,0.00,,Overcast,240,2013-12-17 21:21:00
4:52 PM,23.0,19.0,85,29.98,10.0,WSW,11.5,-,0.00,,Overcast,240,2013-12-17 21:52:00
5:48 PM,23.0,19.4,86,29.95,10.0,SW,11.5,-,N/A,,Overcast,230,2013-12-17 22:48:00
5:52 PM,23.0,19.0,85,29.98,10.0,SW,12.7,-,N/A,,Overcast,230,2013-12-17 22:52:00
6:52 PM,23.0,19.0,85,30.00,10.0,WSW,11.5,-,N/A,,Overcast,240,2013-12-17 23:52:00
7:52 PM,23.0,19.9,88,30.02,10.0,WSW,13.8,-,N/A,,Overcast,250,2013-12-18 00:52:00
8:07 PM,23.0,19.4,86,29.99,10.0,WSW,12.7,-,N/A,,Overcast,240,2013-12-18 01:07:00
8:31 PM,21.2,19.4,93,29.99,10.0,SW,10.4,-,N/A,,Scattered Clouds,230,2013-12-18 01:31:00
8:52 PM,19.9,18.0,92,30.03,9.0,WSW,10.4,-,N/A,,Clear,240,2013-12-18 01:52:00
9:52 PM,21.0,19.0,92,30.04,9.0,SW,8.1,-,N/A,,Clear,230,2013-12-18 02:52:00
10:52 PM,21.9,19.9,92,30.04,9.0,SW,6.9,-,N/A,,Clear,230,2013-12-18 03:52:00
11:52 PM,23.0,19.9,88,30.05,9.0,SW,10.4,-,N/A,,Clear,230,2013-12-18 04:52:00